Weather History for Dansville, NY

Change the Weather History Date:

Wednesday, March 27, 2013

  Actual Average Record
Temperature  
Mean Temperature 38 °F -  
Max Temperature 46 °F 48 °F 77 °F (1986)
Min Temperature 30 °F 26 °F 9 °F (1966)
Degree Days  
Heating Degree Days 27    
Moisture  
Dew Point 29 °F    
Average Humidity 73    
Maximum Humidity 92    
Minimum Humidity 50    
Precipitation  
Precipitation 0.00 in - - ()
Sea Level Pressure  
Sea Level Pressure 30.03 in    
Wind  
Wind Speed 3 mph (WNW)    
Max Wind Speed 13 mph    
Max Gust Speed 23 mph    
Visibility 10 miles    
Events Rain , Snow    
Averages and records for this station are not official NWS values.
T = Trace of Precipitation, MM = Missing Value Source: NWS Daily Summary

Daily Weather History Graph

Daily Weather History Graph

Search for Another Location

Airport:

Trip Planner

Search our weather history database for the weather conditions in past years. The results will help you decide how hot, cold, wet, or windy it might be!

Date:

Astronomy

Mar. 27, 2013 Rise Set
Actual Time 7:01 AM EDT 7:31 PM EDT
Civil Twilight 6:33 AM EDT 7:59 PM EDT
Nautical Twilight 5:59 AM EDT 8:33 PM EDT
Astronomical Twilight 5:25 AM EDT 9:07 PM EDT
Moon 8:14 PM EDT (3/27) 6:50 AM EDT (3/27)
Length of Visible Light 13h 26m
Length of Day
12h 29m
Full, 100% of the Moon is Illuminated
Mar 27
Full
Apr 3
Last Quarter
Apr 10
New
Apr 18
First Quarter
Apr 25
Full

Hourly Weather History & Observations

Time (EDT) Temp. Windchill Dew Point Humidity Pressure Visibility Wind Dir Wind Speed Gust Speed Precip Events Conditions
12:54 AM 35.1 °F - 28.0 °F 76% 29.98 in 10.0 mi Calm Calm - N/A   Partly Cloudy
1:54 AM 33.1 °F - 28.0 °F 82% 29.99 in 10.0 mi Calm Calm - N/A   Overcast
2:54 AM 33.1 °F - 27.0 °F 78% 29.98 in 10.0 mi Calm Calm - N/A   Scattered Clouds
3:54 AM 33.1 °F - 25.0 °F 72% 29.97 in 10.0 mi Calm Calm - N/A   Clear
4:54 AM 30.9 °F - 24.1 °F 76% 29.97 in 10.0 mi Calm Calm - N/A   Clear
5:54 AM 33.1 °F 27.7 °F 24.1 °F 70% 29.98 in 10.0 mi Variable 5.8 mph - N/A   Mostly Cloudy
6:54 AM 30.9 °F 27.5 °F 25.0 °F 79% 30.00 in 10.0 mi SSE 3.5 mph - N/A   Overcast
7:54 AM 33.1 °F 30.0 °F 26.1 °F 75% 30.01 in 10.0 mi ESE 3.5 mph - N/A   Overcast
8:54 AM 36.0 °F - 27.0 °F 70% 30.03 in 10.0 mi Calm Calm - N/A   Overcast
9:54 AM 37.9 °F - 28.0 °F 68% 30.03 in 10.0 mi Calm Calm - N/A   Overcast
10:54 AM 39.0 °F 35.7 °F 28.0 °F 65% 30.03 in 10.0 mi Variable 4.6 mph - N/A   Overcast
11:54 AM 41.0 °F 35.8 °F 28.9 °F 62% 30.03 in 10.0 mi WSW 8.1 mph - N/A   Overcast
12:54 PM 45.0 °F 38.9 °F 28.0 °F 52% 30.03 in 10.0 mi WNW 12.7 mph 18.4 mph 0.00 in   Overcast
1:54 PM 46.0 °F 41.4 °F 28.0 °F 50% 30.02 in 10.0 mi WNW 9.2 mph 20.7 mph N/A   Mostly Cloudy
2:54 PM 46.0 °F 40.2 °F 28.9 °F 51% 30.02 in 10.0 mi NW 12.7 mph 21.9 mph N/A   Mostly Cloudy
3:54 PM 42.1 °F 36.1 °F 30.0 °F 62% 30.03 in 10.0 mi West 10.4 mph 23.0 mph 0.00 in Rain Light Rain
4:54 PM 39.0 °F 33.4 °F 30.0 °F 70% 30.05 in 10.0 mi West 8.1 mph 18.4 mph 0.00 in Rain Light Rain
5:54 PM 39.9 °F 33.4 °F 28.9 °F 65% 30.06 in 10.0 mi West 10.4 mph 19.6 mph 0.00 in   Overcast
6:54 PM 37.9 °F - 30.9 °F 76% 30.08 in 10.0 mi Calm Calm - 0.00 in Rain Light Rain
7:09 PM 37.4 °F - 30.2 °F 75% 30.03 in 10.0 mi Calm Calm - 0.00 in Rain Light Rain
7:54 PM 36.0 °F 31.1 °F 33.1 °F 89% 30.09 in 10.0 mi NNE 5.8 mph - 0.00 in   Overcast
8:54 PM 35.1 °F - 33.1 °F 92% 30.09 in 10.0 mi Calm Calm - 0.00 in   Overcast
9:54 PM 35.1 °F - 32.0 °F 89% 30.10 in 10.0 mi Calm Calm - N/A   Overcast
10:54 PM 36.0 °F - 33.1 °F 89% 30.09 in 10.0 mi Calm Calm - 0.00 in   Overcast
11:54 PM 35.1 °F 31.0 °F 32.0 °F 89% 30.09 in 5.0 mi North 4.6 mph - 0.00 in Snow Light Snow